Regional Weather Roundup
Issued by NWS

Home | Current Version | Previous Version | Graphics & Text | Print | Product List | Glossary On
Versions: 1 2 3 4 5 6 7 8 9 10 11 12 13 14 15 16 17 18 19 20 21 22 23 24 25 26 27 28 29 30 31 32 33 34 35 36 37 38 39 40 41 42 43 44 45 46 47 48 49 50
000
ASUS45 KBOI 261810
RWRID
WEATHER ROUNDUP FOR IDAHO
NATIONAL WEATHER SERVICE BOISE ID
1100 AM MST FRI DEC 26 2014

NOTE: "FAIR" INDICATES FEW OR NO CLOUDS BELOW 12000 FEET
WITH NO SIGNIFICANT WEATHER AND/OR OBSTRUCTIONS TO VISIBILITY

IDZ012-014-261900-
SOUTHWEST IDAHO


CITY           SKY/WX    TMP DP  RH WIND       PRES   REMARKS
BOISE          FAIR      32  24  72 W12       30.19R WCI  23
CALDWELL       FAIR      36  21  55 SW13      30.25R WCI  27
MOUNTAIN HOME  FAIR      33  26  76 NW23G30   30.16R WCI  20
$$

IDZ016-017-261900-
SOUTHCENTRAL IDAHO


CITY           SKY/WX    TMP DP  RH WIND       PRES   REMARKS
BURLEY         CLOUDY    24  18  77 W14       30.08S WCI  12
JEROME         CLOUDY    21  19  92 S3        30.12R
TWIN FALLS     CLOUDY    24  18  77 W12       30.11R WCI  13
$$

IDZ019>023-261900-
SOUTHEAST IDAHO


CITY           SKY/WX    TMP DP  RH WIND       PRES   REMARKS
IDAHO FALLS    FAIR      14   9  80 SW5       30.06S WCI   6
POCATELLO      FAIR      17  14  88 CALM      30.09R
REXBURG        CLOUDY     8   6  92 CALM      30.06R
$$

IDZ006-010-011-018-031-032-261900-
CENTRAL IDAHO MOUNTAINS


CITY           SKY/WX    TMP DP  RH WIND       PRES   REMARKS
MCCALL         LGT SNOW  24  19  81 W5        30.10R WCI  18
HAILEY         MOSUNNY   18   5  57 CALM      30.06R
STANLEY          N/A     13   7  77 CALM      30.05R
SALMON         CLOUDY    21  18  86 CALM      30.12S
CHALLIS        CLOUDY    22  13  68 CALM      30.07R
$$

IDZ002-004-006-007-026-261900-
NORTHERN IDAHO


CITY           SKY/WX    TMP DP  RH WIND       PRES   REMARKS
LEWISTON       PTSUNNY   36  30  79 S5        30.28R WCI  32
LOWELL           N/A     34  32  92 CALM      30.28R
COEUR D`ALENE  CLOUDY    27  19  74 N5        30.23R WCI  21
MULLAN PASS    LGT SNOW  20  15  81 CALM      30.02S
$$



USA.gov is the U.S. government's official web portal to all federal, state and local government web resources and services.